Change the Weather History Date:

Monday, January 27, 2014

  Actual Average (KSBY) Record (KSBY)
Temperature  
Mean Temperature 40 °F 36 °F  
Max Temperature 51 °F 44 °F 71 °F (1974)
Min Temperature 27 °F 27 °F 0 °F (1987)
Degree Days  
Heating Degree Days 26 29  
Month to date heating degree days 804  
Since 1 July heating degree days 2428  
Cooling Degree Days 0 0  
Month to date cooling degree days 0  
Year to date cooling degree days 0  
Moisture  
Dew Point 24 °F    
Average Humidity 58    
Maximum Humidity 73    
Minimum Humidity 34    
Precipitation  
Precipitation 0.00 in 0.12 in 0.93 in (1976)
Month to date precipitation 3.12  
Year to date precipitation 3.12  
Snow  
Snow 0.00 in 0.10 in 2.00 in (1986)
Month to date snowfall 2.6  
Since 1 July snowfall 4.4  
Snow Depth -    
Sea Level Pressure  
Sea Level Pressure 29.85 in    
Wind  
Wind Speed 11 mph (West)    
Max Wind Speed 16 mph    
Max Gust Speed 25 mph    
Visibility 10 miles    
Events      
T = Trace of Precipitation, MM = Missing Value Source: NWS Daily Summary

Daily Weather History Graph

Daily Weather History Graph

Search for Another Location

Airport or City:

Trip Planner

Search our weather history database for the weather conditions in past years. The results will help you decide how hot, cold, wet, or windy it might be!

Date:

Astronomy

Jan. 27, 2014 Rise Set
Actual Time 7:09 AM EST 5:17 PM EST
Civil Twilight 6:41 AM EST 5:45 PM EST
Nautical Twilight 6:09 AM EST 6:17 PM EST
Astronomical Twilight 5:38 AM EST 6:48 PM EST
Moon 3:47 AM EST (1/27) 2:01 PM EST (1/27)
Length of Visible Light 11h 04m
Length of Day
10h 07m
Waning Crescent, 15% of the Moon is Illuminated
Jan 27
Waning Crescent
Jan 30
New
Feb 6
First Quarter
Feb 14
Full
Feb 22
Last Quarter

Hourly Weather History & Observations

Time (EST) Temp. Windchill Dew Point Humidity Pressure Visibility Wind Dir Wind Speed Gust Speed Precip Events Conditions
12:53 AM 37.0 °F 32.4 °F 28.0 °F 70% 29.82 in 10.0 mi SSW 5.8 mph - N/A   Clear
1:53 AM 37.0 °F 31.0 °F 28.0 °F 70% 29.81 in 10.0 mi SW 8.1 mph - N/A   Clear
2:53 AM 37.9 °F 30.5 °F 30.0 °F 73% 29.80 in 10.0 mi SW 11.5 mph - N/A   Clear
3:53 AM 39.0 °F 31.4 °F 30.9 °F 73% 29.78 in 10.0 mi SW 12.7 mph 20.7 mph N/A   Clear
4:53 AM 39.0 °F 31.0 °F 30.9 °F 73% 29.76 in 10.0 mi SW 13.8 mph 20.7 mph N/A   Partly Cloudy
5:53 AM 39.0 °F 30.6 °F 30.9 °F 73% 29.75 in 10.0 mi SW 15.0 mph 24.2 mph N/A   Clear
6:53 AM 39.9 °F 31.8 °F 30.9 °F 70% 29.75 in 10.0 mi SW 15.0 mph - N/A   Clear
7:53 AM 39.9 °F 32.1 °F 30.9 °F 70% 29.75 in 10.0 mi SW 13.8 mph - N/A   Clear
8:53 AM 41.0 °F 33.1 °F 30.9 °F 67% 29.75 in 10.0 mi SW 15.0 mph - N/A   Clear
9:53 AM 42.1 °F 36.6 °F 30.9 °F 65% 29.75 in 10.0 mi SW 9.2 mph - N/A   Clear
10:53 AM 42.1 °F 37.1 °F 32.0 °F 67% 29.75 in 10.0 mi SSW 8.1 mph - N/A   Mostly Cloudy
11:53 AM 46.0 °F 42.5 °F 33.1 °F 61% 29.74 in 10.0 mi SW 6.9 mph - N/A   Clear
12:53 PM 48.9 °F - 33.1 °F 54% 29.73 in 10.0 mi WSW 10.4 mph 16.1 mph N/A   Scattered Clouds
1:53 PM 46.9 °F - 33.1 °F 59% 29.74 in 10.0 mi SSW 5.8 mph - N/A   Overcast
2:53 PM 51.1 °F - 32.0 °F 48% 29.78 in 10.0 mi NNW 15.0 mph 24.2 mph N/A   Mostly Cloudy
3:53 PM 44.1 °F 36.8 °F 27.0 °F 51% 29.83 in 10.0 mi NNW 16.1 mph 25.3 mph N/A   Mostly Cloudy
4:53 PM 41.0 °F 33.1 °F 23.0 °F 49% 29.88 in 10.0 mi NNW 15.0 mph 19.6 mph N/A   Clear
5:53 PM 37.0 °F - 18.0 °F 46% 29.93 in 10.0 mi North - - N/A   Mostly Cloudy
6:53 PM 32.0 °F 21.6 °F 18.0 °F 56% 29.98 in 10.0 mi NNW 15.0 mph 24.2 mph N/A   Clear
7:53 PM 30.0 °F 19.1 °F 12.0 °F 47% 30.01 in 10.0 mi North 15.0 mph 23.0 mph N/A   Clear
8:53 PM 28.0 °F 18.6 °F 10.0 °F 47% 30.04 in 10.0 mi North 10.4 mph 16.1 mph N/A   Clear
9:53 PM 28.0 °F 17.0 °F 7.0 °F 41% 30.06 in 10.0 mi North 13.8 mph - N/A   Scattered Clouds
10:53 PM 28.0 °F 17.0 °F 3.0 °F 34% 30.10 in 10.0 mi North 13.8 mph 23.0 mph N/A   Overcast
11:53 PM 27.0 °F 15.6 °F 3.0 °F 36% 30.13 in 10.0 mi North 13.8 mph - N/A   Overcast